AO-07 1 07530U 74089B 19045.85100889 -.00000019 00000-0 16198-3 0 9990 2 07530 101.7270 14.8675 0011866 225.6484 187.5947 12.53636792 25001 UO-11 1 14781U 84021B 19045.69236753 .00000046 00000-0 11836-4 0 9999 2 14781 97.6243 76.1874 0008769 17.1542 342.9967 14.83063501880385 LO-19 1 20442U 90005G 19045.79540552 -.00000013 00000-0 11570-4 0 9995 2 20442 98.6365 348.0903 0012249 150.0033 210.1855 14.32917091518630 HUBBLE 1 20580U 90037B 19045.82165071 .00000441 00000-0 15972-4 0 9990 2 20580 28.4698 310.9953 0002612 228.2585 200.2343 15.09173244382156 MET-2/21 1 22782U 93055A 19045.74227751 .00000022 00000-0 64700-5 0 9993 2 22782 82.5463 261.4283 0022552 163.2435 242.9653 13.83815196285727 AO-27 1 22825U 93061C 19045.44859085 .00000004 00000-0 19604-4 0 9998 2 22825 98.8925 31.3194 0008532 8.2215 351.9105 14.30051158324190 IO-26 1 22826U 93061D 19045.89887469 .00000000 00000-0 17999-4 0 9996 2 22826 98.8866 31.7864 0008831 355.6404 4.4699 14.30384043324453 FO-29 1 24278U 96046B 19044.73196364 -.00000014 00000-0 22430-4 0 9996 2 24278 98.5178 215.2086 0350001 204.0017 154.4463 13.53088900110905 NOAA-15 1 25338U 98030A 19045.77561414 .00000022 00000-0 27852-4 0 9997 2 25338 98.7572 67.1997 0009596 240.0284 119.9943 14.25894761 79581 GO-32 1 25397U 98043D 19045.08142338 -.00000017 00000-0 11621-4 0 9992 2 25397 98.6770 346.8193 0002182 61.1798 298.9599 14.23660120 70142 ISS 1 25544U 98067A 19045.93798855 .00000828 00000-0 20339-4 0 9992 2 25544 51.6404 249.1355 0005661 29.3291 51.6485 15.53260466156262 NO-44 1 26931U 01043C 19045.19255479 -.00000033 00000-0 19078-4 0 9996 2 26931 67.0528 324.9459 0005384 269.4815 90.5670 14.30531995907162 SO-50 1 27607U 02058C 19045.17857408 -.00000026 00000-0 17212-4 0 9992 2 27607 64.5544 70.2714 0081960 280.1676 79.0189 14.75519683868664 CO-55 1 27844U 03031E 19045.82853086 .00000053 00000-0 43433-4 0 9990 2 27844 98.6865 55.8796 0010382 35.1223 325.0637 14.22159926810689 CO-57 1 27848U 03031J 19045.85589908 .00000038 00000-0 37210-4 0 9995 2 27848 98.6945 56.3773 0010438 45.4919 314.7110 14.21757621810542 RS-22 1 27939U 03042A 19045.75504016 .00000072 00000-0 21501-4 0 9998 2 27939 98.0189 184.1371 0014314 99.2703 261.0128 14.66753519822374 NOAA-18 1 28654U 05018A 19045.73739128 .00000037 00000-0 45095-4 0 9995 2 28654 99.1149 90.7416 0014693 163.1238 197.0424 14.12403996708027 CO-58 1 28895U 05043F 19044.95037669 .00000114 00000-0 30762-4 0 9995 2 28895 097.9380 192.1055 0017306 029.8966 330.3221 14.63630135709002 Falconsat-3 1 30776U 07006E 19044.75525273 .00002485 00000-0 71598-4 0 9993 2 30776 35.4348 167.6924 0002195 45.0650 315.0255 15.35588374661467 CO-65 1 32785U 08021C 19045.16945135 .00000187 00000-0 25896-4 0 9999 2 32785 97.5478 50.7763 0012083 321.3249 38.7102 14.88249074585166 AAUSAT2 1 32788U 08021F 19045.46391105 .00000785 00000-0 77467-4 0 9992 2 32788 97.5052 66.6455 0010339 254.0404 105.9678 14.94599401586365 DO-64 1 32789U 08021G 19044.57240056 .00001103 00000-0 78374-4 0 9995 2 32789 097.4819 097.9231 0012279 186.5983 173.5085 15.06647459588020 CO-66 1 32791U 08021J 19044.99354588 .00000252 00000-0 31059-4 0 9993 2 32791 97.5300 56.4281 0011994 296.2946 63.7040 14.90733028585539 RS-30 1 32953U 08025A 19045.61873268 .00000020 00000-0 75656-4 0 9992 2 32953 82.5000 221.8997 0019621 42.3237 317.9352 12.43087474486892 PRISM 1 33493U 09002B 19040.22106459 -.00000064 00000-0 27954-7 0 9991 2 33493 98.1216 316.2721 0014333 254.3196 105.6442 14.96497907545795 NOAA-19 1 33591U 09005A 19045.78427797 .00000033 00000-0 43300-4 0 9995 2 33591 99.1706 33.9692 0014148 10.0807 350.0645 14.12334318516411 TISAT-1 1 36799U 10035E 19044.92913720 .00000238 00000-0 30172-4 0 9994 2 36799 098.1358 193.0914 0013392 131.8865 228.3497 14.91002785465970 JUGNU 1 37839U 11058B 19043.22972219 .00000297 00000-0 16571-4 0 9998 2 37839 19.9626 21.6531 0018904 13.7594 67.0946 14.12641398379352 SRMSAT 1 37841U 11058D 19045.43807142 .00000270 00000-0 30717-5 0 9998 2 37841 19.9729 62.4643 0011616 271.9059 201.4484 14.10624185379122 AO-71 1 37854U 11061E 19045.14586505 .00000990 00000-0 58526-4 0 9997 2 37854 101.7147 239.3028 0161658 75.6426 286.2671 15.06133934398247 HRBE 1 37855U 11061F 19045.76715377 .00000867 00000-0 51423-4 0 9999 2 37855 101.7274 237.6576 0174466 84.0069 278.0994 15.05136718398133 ALMASAT-1 1 38078U 12006B 19045.72692726 .00029365 40659-5 20647-3 0 9991 2 38078 69.4266 258.8083 0188737 95.4297 313.7968 15.54325373378176 HORYU-2 1 38340U 12025D 19045.08477127 .00000146 00000-0 29437-4 0 9993 2 38340 98.3451 79.8328 0012142 155.7654 204.4128 14.75666571362785 RS-40 1 38735U 12041C 19045.71212702 .00000043 00000-0 23984-3 0 9991 2 38735 82.4786 305.3980 0017112 142.4040 217.8238 12.42577681297156 BEESAT-3 1 39135U 13015F 19045.43684468 .00000803 00000-0 50019-4 0 9993 2 39135 64.8700 79.4816 0010131 274.5525 85.4443 15.17203004321398 BEESAT-2 1 39136U 13015G 19045.23008420 .00000784 00000-0 49846-4 0 9994 2 39136 64.8686 83.5972 0010595 287.9395 72.0575 15.16635366321294 ZACUBE-1 1 39417U 13066B 19045.73320621 .00000213 00000-0 32966-4 0 9999 2 39417 97.5700 66.1546 0060483 80.7312 280.0735 14.81054156282691 TRITON-1 1 39427U 13066M 19044.90861108 .00000121 00000-0 27443-4 0 9990 2 39427 097.6632 030.0988 0113255 204.4112 155.1707 14.67779545279840 GOMX-1 1 39430U 13066Q 19045.78361781 .00000146 00000-0 36026-4 0 9997 2 39430 97.7301 10.6173 0149953 285.2717 73.1963 14.59197047278530 LO-74 1 39440U 13066AA 19045.47332256 .00000181 00000-0 31978-4 0 9999 2 39440 97.6001 51.2657 0081540 127.9040 232.9580 14.75792127281658 AO-73 1 39444U 13066AE 19045.05888943 .00000248 00000-0 36717-4 0 9996 2 39444 97.5693 67.3343 0059580 77.4605 283.3265 14.81859819281472 SPROUT 1 39770U 14029E 19045.83795008 .00000384 00000-0 48781-4 0 9998 2 39770 97.8791 150.0173 0009962 128.6602 231.5504 14.87173397256426 DUCHIFAT-1 1 40021U 14033M 19045.75737762 .00000294 00000-0 35968-4 0 9991 2 40021 97.9219 329.9722 0014351 97.5635 262.7213 14.90521495253080 NANOSATCBR1 1 40024U 14033Q 19045.31646318 .00000329 00000-0 40242-4 0 9992 2 40024 97.9131 327.2551 0013606 101.6413 258.6332 14.89751213252929 EO-79 1 40025U 14033R 19044.83378837 .00000217 00000-0 29165-4 0 9994 2 40025 97.9068 324.7234 0013800 108.0558 252.2164 14.88865235252748 DTUSAT-2 1 40030U 14033W 19045.33379269 .00000201 00000-0 27665-4 0 9992 2 40030 97.8998 323.5809 0013288 102.3354 257.9351 14.88464804252759 EO-80 1 40032U 14033Y 19045.33443408 .00000206 00000-0 28282-4 0 9992 2 40032 97.9004 323.5829 0013257 103.0014 257.2683 14.88404718252747 ANTELSAT 1 40034U 14033AA 19045.21270620 .00000171 00000-0 32744-4 0 9994 2 40034 97.7790 277.5367 0059663 137.0014 223.5880 14.74043060250334 VELOX-1 1 40057U 14034E 19045.75470724 .00000217 00000-0 37944-4 0 9994 2 40057 98.2195 166.3029 0009590 271.5858 88.4261 14.77584266249462 DAURIA DX 1 1 40071U 14037C 19045.73367367 .00000080 00000-0 17730-4 0 9998 2 40071 98.4054 193.4310 0007195 264.0076 96.0321 14.81233648248906 UKUBE-1 1 40074U 14037F 19045.83663384 .00000244 00000-0 36449-4 0 9990 2 40074 98.4152 200.8834 0003535 254.3498 105.7325 14.83966291249289 HODOYOSHI-1 1 40299U 14070B 19045.70167586 .00000499 00000-0 23981-4 0 9994 2 40299 97.3583 127.9920 0014537 114.5362 37.8201 15.23208597237390 CHUBUSAT-1 1 40300U 14070C 19045.80533752 .00000533 00000-0 26291-4 0 9996 2 40300 97.3394 123.0593 0020992 127.4097 12.9204 15.21909250237171 QSAT-EOS 1 40301U 14070D 19045.75040444 .00001477 00000-0 60522-4 0 9995 2 40301 97.3379 125.3871 0027585 114.7371 344.5206 15.25514669237398 FIREBIRD FU3 1 40377U 15003B 19045.87012592 .00001373 00000-0 58487-4 0 9993 2 40377 99.0988 0.9373 0129244 142.5248 218.5080 15.18207007223132 FIREBIRD FU4 1 40378U 15003C 19045.85776434 .00001400 00000-0 59485-4 0 9994 2 40378 99.0990 0.9923 0129467 142.4541 218.5816 15.18213175223139 GRIFEX 1 40379U 15003D 19045.84816807 .00000972 00000-0 45887-4 0 9997 2 40379 99.0977 355.8051 0136794 158.8359 201.8605 15.15061930222832 NO-84 1 40654U 15025D 19045.51204901 .00012395 00000-0 18232-3 0 05347 2 40654 054.9910 018.2962 0145356 009.1601 351.2144 15.44657857093248 NO-83 1 40655U 15025E 19045.24215320 .00036915 00000-0 26260-3 0 06362 2 40655 054.9703 288.9612 0080792 063.1638 297.7635 15.69120144094127 DEORBITSAIL 1 40719U 15032E 19045.24830536 .00000336 00000-0 55314-4 0 9996 2 40719 97.9229 299.5018 0016395 352.4023 7.6936 14.76637413193891 NUDT-PHONESAT 1 40900U 15049B 19045.82793117 .00001747 00000-0 78907-4 0 9993 2 40900 97.4406 56.4093 0011363 257.4723 227.2674 15.22264414188813 XW-2A 1 40903U 15049E 19045.79514110 .00001413 00000-0 35862-4 0 9999 2 40903 97.3556 87.7707 0012200 229.9554 190.6869 15.41359472191168 XW-2C 1 40906U 15049H 19045.74218208 .00000663 00000-0 38445-4 0 9992 2 40906 97.4661 49.9045 0013248 270.1833 176.9004 15.15506483188223 XW-2D 1 40907U 15049J 19045.73434769 .00000741 00000-0 42381-4 0 9995 2 40907 97.4631 49.5745 0012593 267.8787 177.8637 15.15681667188238 LILACSAT-2 1 40908U 15049K 19045.78178622 .00000172 00000-0 13195-4 0 9993 2 40908 97.4761 48.6550 0014283 272.1701 173.7616 15.13700269188061 XW-2E 1 40909U 15049L 19045.74659595 .00000854 00000-0 45935-4 0 9997 2 40909 97.4598 52.1097 0011951 262.6707 152.7692 15.17511512188397 XW-2F 1 40910U 15049M 19045.74361600 .00000959 00000-0 51836-4 0 9999 2 40910 97.4618 51.3398 0013179 261.0903 184.2887 15.17028126188224 XW-2B 1 40911U 15049N 19045.69997880 .00000354 00000-0 22126-4 0 9998 2 40911 97.4666 50.1590 0012504 268.6287 201.6485 15.15613658188123 DCBB 1 40912U 15049P 19045.70279630 .00000871 00000-0 44464-4 0 9990 2 40912 97.4512 54.6829 0013525 243.1661 227.7577 15.19304281188489 TW-1C 1 40926U 15051B 19045.85250183 .00008844 00000-0 14278-3 0 9993 2 40926 97.1544 92.2979 0010643 106.3545 339.4141 15.53054499190920 TW-1A 1 40928U 15051D 19045.80611115 .00002645 00000-0 68245-4 0 9993 2 40928 97.1606 79.8131 0011940 153.9589 292.8867 15.39983789190103 IO-86 1 40931U 15052B 19044.03935185 .00000303 00000-0 -46834-4 0 9998 2 40931 5.9994 232.6303 0011924 172.6410 98.8752 14.76593065182659 LQSat 1 40958U 15057A 19045.73404152 -.00000008 00000-0 64218-5 0 9994 2 40958 97.9130 118.1913 0016858 280.6882 79.2421 14.73066624180556 AO-85 1 40967U 15058D 19044.37270497 .00000252 00000-0 43778-4 0 05978 2 40967 064.7771 178.9347 0211035 241.3412 116.6349 14.75873049089249 ATHENOXAT-1 1 41168U 15077C 19044.53709491 .00001628 00000-0 51244-4 0 9993 2 41168 14.9826 53.1119 0011685 154.8671 113.8928 15.13326311174982 ChubuSat-2 1 41338U 16012B 19044.86428498 .00000301 00000-0 16697-4 0 9993 2 41338 31.0019 218.0300 0013993 306.4522 53.4823 15.00093668164156 ChubuSat-3 1 41339U 16012C 19045.84652567 .00000270 00000-0 14211-4 0 9994 2 41339 31.0096 210.0484 0013720 323.8101 36.1619 15.00273482164291 Horyu-4 1 41340U 16012D 19045.76649979 .00000442 00000-0 26935-4 0 9997 2 41340 31.0039 203.1284 0014177 338.7724 21.2323 15.01169729164379 OUFTI-1 1 41458U 16025C 19045.77423482 .00000997 00000-0 54803-4 0 9991 2 41458 98.1084 126.3316 0168914 53.7560 307.9178 15.05407777153930 e-st@r-II 1 41459U 16025D 19045.76255622 .00001727 00000-0 92242-4 0 9991 2 41459 98.1095 126.0504 0169804 54.9797 306.7241 15.05087162153900 AAUSAT4 1 41460U 16025E 19045.68661477 .00001819 00000-0 95299-4 0 9990 2 41460 98.1057 126.9238 0160397 49.0454 312.4476 15.06808727153998 LO-87 1 41557U 16033B 19045.86823722 .00001150 00000-0 46254-4 0 9994 2 41557 97.4232 134.1038 0014437 22.0067 338.1789 15.26873815151199 NuSat2 1 41558U 16033C 19045.86019728 .00001255 00000-0 47507-4 0 9996 2 41558 97.4253 134.7457 0013562 24.5361 335.6521 15.28769063151216 Lapan A3 1 41603U 16040E 19045.79964933 -.00000012 00000-0 25773-5 0 9997 2 41603 97.3789 107.4483 0014982 109.1785 27.6825 15.19665399146927 Swayam 1 41607U 16040J 19045.62875598 .00001388 00000-0 61981-4 0 9997 2 41607 97.3826 109.9096 0015235 106.2498 254.0416 15.22919065146996 Pratham 1 41783U 16059A 19045.39546771 .00000042 00000-0 17305-4 0 9991 2 41783 98.0856 107.6138 0034616 56.3002 304.1492 14.62972620127375 AlSat 1N 1 41789U 16059G 19045.69485864 .00000054 00000-0 19358-4 0 9998 2 41789 98.0874 109.6351 0029362 46.1060 314.2562 14.64215919127501 ScatSat 1 41790U 16059H 19045.24022065 -.00000001 00000-0 10760-4 0 9992 2 41790 98.2279 93.2016 0019466 70.1139 290.2151 14.50889668126282 TY-1 1 41844U 16066D 19045.74560892 .00001354 00000-0 58836-4 0 9997 2 41844 97.4067 54.5977 0013445 264.2628 181.7118 15.23951009125819 Pegasus-1 1 41846U 16066F 19045.77527721 .00000179 00000-0 38560-4 0 9992 2 41846 98.7288 83.8996 0366878 246.5714 109.6504 14.37492570118756 CAS-2T 1 41847U 16066G 19045.19545259 .00000013 00000-0 13369-4 0 9992 2 41847 98.7239 83.8266 0365089 245.1629 111.1184 14.37957464119106 EO-88 1 42017U 17008BX 19045.18558729 .00001366 00000-0 57387-4 0 9994 2 42017 97.4189 113.4960 0004852 240.1126 119.9630 15.25140109110945 HAVELSAT 1 42700U 98067LH 19045.77879295 .00484684 12538-3 58681-3 0 9993 2 42700 51.6180 173.9422 0005711 335.2490 24.8248 16.07546267100423 SOMP2 1 42701U 98067LJ 19045.78547547 .00199322 26947-4 46612-3 0 9990 2 42701 51.6296 180.2325 0002836 336.3823 23.7055 15.96570015100331 PHOENIX 1 42706U 98067LP 19045.79406547 .00076351 00000-0 32452-3 0 9991 2 42706 51.6254 187.8805 0001533 342.0049 18.0899 15.84590866100159 qbee 1 42708U 98067LR 19045.80773823 .00526684 14883-3 61039-3 0 9998 2 42708 51.6166 174.9100 0006596 333.4253 26.6421 16.08214508100275 ZA-AeroSat 1 42713U 98067LU 19045.80232386 .00070684 00000-0 32765-3 0 9999 2 42713 51.6315 193.2747 0001773 351.8064 8.2909 15.82786989 99748 SpaceCube 1 42717U 98067LY 19045.81271197 .00450985 10772-3 58263-3 0 9994 2 42717 51.6117 175.5737 0005849 333.6405 26.4309 16.06520078 99343 NJUST-1 1 42722U 98067MB 19045.82861087 .00043962 00000-0 23876-3 0 9999 2 42722 51.6383 197.7273 0003080 60.9983 84.3250 15.79541030 98753 LO-90 1 42725U 98067ME 19045.61835554 .00132927 17888-4 37399-3 0 9990 2 42725 51.6316 185.7877 0001832 346.2793 78.9019 15.93297532 98800 nSIGHT1 1 42726U 98067MF 19045.69436374 .00020540 00000-0 19761-3 0 9990 2 42726 51.6366 220.6651 0004814 66.7809 293.3693 15.66522446 98356 SNUSAT 1B 1 42727U 98067MG 19045.84060976 .00147892 19371-4 43248-3 0 9991 2 42727 51.6253 185.0599 0003282 355.8166 4.2813 15.92505325 98790 QBITO 1 42728U 98067MH 19045.85279069 .02113902 12020-4 66689-3 0 9993 2 42728 51.6191 172.7444 0008165 334.7453 166.1258 16.25582169 98793 SUSat 1 42730U 98067MK 19045.77061425 .00191765 25557-4 47496-3 0 9997 2 42730 51.6272 182.3786 0003060 329.8003 30.2828 15.95527923 98660 Aoxiang-1 1 42735U 98067MQ 19045.82438946 .00051081 00000-0 26128-3 0 9991 2 42735 51.6301 196.0972 0003230 74.1274 71.2341 15.80789962 99906 BeEagleSat 1 42736U 98067MR 19045.82569760 .00093825 00000-0 35221-3 0 9997 2 42736 51.6282 188.8126 0002142 47.8586 312.2600 15.87077715 98693 CAS-4B 1 42759U 17034B 19045.74357447 .00000180 00000-0 24562-4 0 9994 2 42759 43.0172 191.4800 0010420 196.4845 297.8347 15.09484498 92107 CAS-4A 1 42761U 17034D 19045.78000993 .00000054 00000-0 16828-4 0 9998 2 42761 43.0184 190.9002 0011026 198.1262 300.6474 15.09559970 92108 UCLSat 1 42765U 17036A 19045.85204527 .00001198 00000-0 54785-4 0 9995 2 42765 97.3691 106.4162 0010226 310.4571 49.5773 15.22426536 91622 NIUSat 1 42766U 17036B 19044.70190496 .00000840 00000-0 41072-4 0 9996 2 42766 97.3692 104.0151 0014309 301.7057 58.2783 15.20851470 91236 LituanicaSAT 2 1 42768U 17036D 19045.62954887 .00001877 00000-0 84379-4 0 9990 2 42768 97.3720 105.7559 0013795 298.6348 61.3500 15.22281949 91439 Aalto 1 1 42775U 17036L 19044.74910119 .00000703 00000-0 34613-4 0 9993 2 42775 97.3682 104.3592 0012627 302.2173 57.7838 15.21121931 91219 URSA MAIOR 1 42776U 17036M 19044.72005666 .00000769 00000-0 37475-4 0 9995 2 42776 97.3690 104.4404 0012447 302.2840 57.7189 15.21239510 91215 Max Valier Sat 1 42778U 17036P 19045.78705086 .00000836 00000-0 39874-4 0 9997 2 42778 97.3721 106.0856 0010967 303.2003 56.8181 15.21766006 91394 Pegasus 1 42784U 17036V 19045.72518723 .00001074 00000-0 49722-4 0 9996 2 42784 97.3695 106.1519 0010794 310.9790 49.0512 15.22196458 91407 NUDATSat 1 42787U 17036Y 19045.20405986 .00001397 00000-0 62309-4 0 9992 2 42787 97.3710 106.1274 0010424 313.5106 46.5265 15.23012888 91194 SUCHAI 1 1 42788U 17036Z 19044.90940628 .00001168 00000-0 53303-4 0 9996 2 42788 097.3700 105.5719 0010416 313.7336 046.3038 15.22554244091360 SKCUBE 1 42789U 17036AA 19044.91796815 .00001097 00000-0 50337-4 0 9990 2 42789 097.3697 105.5457 0010282 313.8418 046.1968 15.22477661091286 VZLUSAT 1 1 42790U 17036AB 19044.92841102 .00001435 00000-0 63914-4 0 9994 2 42790 097.3707 105.8617 0009849 313.4409 046.6007 15.23020900091307 VENTA 1 1 42791U 17036AC 19044.89380106 .00001076 00000-0 49390-4 0 9996 2 42791 097.3695 105.5718 0009943 314.8252 045.2176 15.22502765091270 Robusta 1B 1 42792U 17036AD 19045.58507031 .00001217 00000-0 55259-4 0 9990 2 42792 97.3695 106.3163 0009831 312.3842 47.6562 15.22640809 91400 D-SAT 1 42794U 17036AF 19045.38912180 .00000079 00000-0 12390-4 0 9999 2 42794 97.5587 95.4404 0126421 195.2082 164.5323 14.91019536 89817 BIRD-J 1 42820U 98067MU 19045.44498964 .00084765 00000-0 34438-3 0 9998 2 42820 51.6282 195.3282 0002066 334.0051 26.0849 15.85490787 92039 BIRD-G 1 42821U 98067MV 19045.79555264 .00077289 00000-0 35330-3 0 9999 2 42821 51.6247 196.1589 0001968 336.0074 24.0837 15.83049176 92032 BIRD-M 1 42822U 98067MW 19045.43578646 .00075503 00000-0 32549-3 0 9996 2 42822 51.6301 196.8075 0001886 348.1763 11.9195 15.84297819 91995 BIRD-B 1 42823U 98067MX 19044.88838413 .00087353 00000-0 36606-3 0 9990 2 42823 51.6276 199.1414 0002656 3.4031 356.6990 15.84832793 91915 BIRD-N 1 42824U 98067MY 19044.84954978 .00080559 00000-0 35236-3 0 9991 2 42824 51.6312 200.4544 0002454 18.7217 341.3876 15.83966418 91889 TechnoSat 1 42829U 17042E 19045.78828179 .00000240 00000-0 29642-4 0 9991 2 42829 97.5784 303.7147 0015654 110.3031 249.9872 14.90923350 86474 TOMSK-TPU 120 1 42910U 98067MZ 19045.69048788 .00026545 00000-0 18752-3 0 9993 2 42910 51.6336 210.4697 0004094 58.0230 8.2349 15.73825059 85448 TANYUSHA 1 1 42911U 98067NA 19045.75594192 .00041141 00000-0 24325-3 0 9998 2 42911 51.6291 205.5122 0003012 51.7608 78.5600 15.77677835 85491 TANYUSHA 2 1 42912U 98067NB 19045.85210066 .00035286 00000-0 22640-3 0 9996 2 42912 51.6361 207.7080 0003238 60.1816 89.2317 15.75896263 85492 TNS 0-2 1 42914U 98067ND 19045.87062032 .00038763 00000-0 26987-3 0 9999 2 42914 51.6312 210.3926 0003149 50.2272 309.9004 15.73963623 85450 QIKCOM-1 1 42983U 98067NF 19045.81188858 .00003795 00000-0 56436-4 0 9994 2 42983 51.6385 241.7349 0004154 30.8263 329.2972 15.57905229 74024 AO-91 1 43017U 17073E 19045.74566754 .00000346 00000-0 32796-4 0 9990 2 43017 97.7214 331.9777 0258148 201.6971 157.3147 14.78390270 66942 EcAMSat 1 43019U 98067NG 19045.75401835 .00006309 00000-0 83770-4 0 9996 2 43019 51.6392 239.1288 0004490 6.5480 353.5570 15.59669992156379 PICSAT 1 43132U 18004X 19045.23079884 .00001155 00000-0 51791-4 0 9995 2 43132 97.5041 113.2222 0009104 340.2341 19.8541 15.23229400 60557 AO-92 1 43137U 18004AC 19044.82234217 .00000888 00000-0 40586-4 0 9999 2 43137 097.5035 112.8256 0008755 344.2393 015.8569 15.23192636060487 TianYi 2 1 43155U 18008A 19045.71270957 .00000288 00000-0 21022-4 0 9991 2 43155 97.4994 120.7982 0018858 35.9544 63.2618 15.10930599 59104 Zhou Enlai 1 43156U 18008B 19045.79221457 .00000400 00000-0 28127-4 0 9990 2 43156 97.5046 120.7918 0015847 34.4901 104.6208 15.10423336 59098 TianYi 6 1 43158U 18008D 19045.67535013 .00000546 00000-0 37392-4 0 9990 2 43158 97.5013 120.2959 0014423 32.4587 119.8777 15.10059739 59047 S-Net G 1 43186U 18014G 19045.80243082 -.00000017 00000-0 36269-5 0 9992 2 43186 97.7164 316.0085 0012224 63.2880 296.9591 14.96578350 56605 S-Net H 1 43187U 18014H 19045.80225832 -.00000024 00000-0 30285-5 0 9996 2 43187 97.7163 315.9998 0012228 63.2453 297.0018 14.96578222 56600 S-Net J 1 43188U 18014J 19045.80205155 -.00000040 00000-0 15843-5 0 9994 2 43188 97.7164 316.0121 0012218 63.3914 296.8558 14.96578938 56604 S-Net K 1 43189U 18014K 19045.80234633 -.00000017 00000-0 36164-5 0 9991 2 43189 97.7162 315.9979 0012224 63.2490 296.9981 14.96577883 55155 FMN 1 1 43192U 18015A 19045.82945348 .00001723 00000-0 74402-4 0 9990 2 43192 97.3813 175.3422 0017144 15.3799 344.7951 15.23745113 57453 Shaonian Xing 1 43199U 18015H 19045.82175087 .00001289 00000-0 55298-4 0 9991 2 43199 97.3590 174.7076 0018304 26.2362 333.9797 15.24389197 57495 1KUNS-PF 1 43466U 98067NP 19045.75725605 .00018340 00000-0 21425-3 0 9992 2 43466 51.6376 241.3721 0000204 136.6372 223.4637 15.61658717 43525 UBAKUSAT 1 43467U 98067NQ 19045.69273159 .00011839 00000-0 15026-3 0 9994 2 43467 51.6371 243.1869 0001870 320.1387 39.9468 15.59895112 43509 Irazu 1 43468U 98067NR 19044.75737809 .00022242 00000-0 24560-3 0 9991 2 43468 51.6372 245.1898 0000439 168.9504 191.1500 15.62977685143378 EnduroSat One 1 43551U 98067NZ 19045.75546904 .00015380 00000-0 19744-3 0 9992 2 43551 51.6377 245.0969 0005816 46.5905 313.5572 15.59314036 33710 EQUISat 1 43552U 98067PA 19045.72806225 .00012050 00000-0 15973-3 0 9996 2 43552 51.6386 245.6690 0006214 45.4386 314.7113 15.58705245 33665 UiTMSat 1 1 43589U 98067PD 19044.76442640 .00012812 00000-0 17099-3 0 9993 2 43589 51.6363 251.2184 0005573 52.3017 307.8481 15.58459174 29243 Maya 1 1 43590U 98067PE 19043.60704899 .00010678 00000-0 14366-3 0 9996 2 43590 51.6363 256.9898 0005735 48.3502 311.7981 15.58454895 28998 Bhutan 1 1 43591U 98067PF 19045.84622841 .00013397 00000-0 17780-3 0 9995 2 43591 51.6373 245.6985 0005831 56.5284 303.6265 15.58560836 29345 SiriusSat 1 1 43595U 98067PG 19045.84154687 .00012552 00000-0 17079-3 0 9990 2 43595 51.6368 246.4105 0003056 10.9745 349.1313 15.57968539 28517 SiriusSat 2 1 43596U 98067PH 19045.08932681 .00011480 00000-0 15780-3 0 9991 2 43596 51.6379 250.4058 0003688 8.8620 351.2437 15.57793159 28392 Tanusha-3 1 43597U 98067PJ 19045.81747881 .00015863 00000-0 20943-3 0 9995 2 43597 51.6362 246.2308 0003173 28.8027 331.3140 15.58548861 28511 SurfSat 1 43614U 18070B 19045.19690892 .00002591 00000-0 71599-4 0 9999 2 43614 93.0387 312.2371 0019181 69.4967 290.8342 15.36938978 23282 CP-7 DAVE 1 43615U 18070C 19045.71874576 .00002629 00000-0 72719-4 0 9998 2 43615 93.0388 312.4540 0019154 67.6064 292.7216 15.36903397 23369 ELFIN-B 1 43616U 18070D 19045.17963530 .00003591 00000-0 98100-4 0 9999 2 43616 93.0347 312.1726 0020239 71.9990 288.3467 15.37244024 23286 ELFIN-A 1 43617U 18070E 19045.17629525 .00003713 00000-0 10140-3 0 9996 2 43617 93.0405 312.2896 0019219 69.2001 291.1309 15.37278684 23286 STARS-Me Mother 1 43640U 98067PQ 19045.13912933 .00007195 00000-0 10679-3 0 9995 2 43640 51.6380 251.4775 0005188 355.4502 4.6441 15.56380793 20311 CubeBel 1 1 43666U 18083E 19045.78555068 .00000938 00000-0 50410-4 0 9992 2 43666 97.5312 71.0502 0013742 258.9691 217.8686 15.17303275 16498 Changshagaoxin 1 43669U 18083H 19045.22211936 .00000835 00000-0 46212-4 0 9998 2 43669 97.5176 70.1720 0009567 249.6202 110.4004 15.16567811 16361 Ten-Koh 1 43677U 18084G 19045.26285599 .00000184 00000-0 24793-4 0 9995 2 43677 97.8378 159.9140 0015505 337.9179 22.1402 14.90122594 16088 Diwata-2 1 43678U 18084H 19045.83190160 .00000318 00000-0 37424-4 0 9992 2 43678 97.8383 160.7248 0010233 2.0091 358.1135 14.91528860 16183 IRVINE 01 1 43693U 18088D 19045.14779400 .00002394 00000-0 10650-3 0 9994 2 43693 85.0346 40.3185 0016476 294.0086 65.9430 15.20812163 14435 QO-100 1 43700U 18090A 19045.63938462 .00000142 00000-0 00000 0 0 9998 2 43700 0.0125 134.9399 0001321 202.5225 62.8602 1.00272704 1050 Reaktor Hello World 1 43743U 18096AA 19045.81449012 .00001013 00000-0 41727-4 0 9993 2 43743 97.4747 115.8783 0019992 55.2786 82.8334 15.26294290 11838 MinXSS-2 1 43758U 18099A 19045.15743771 .00000486 00000-0 49269-4 0 9990 2 43758 97.7590 118.6098 0016260 28.4938 331.7168 14.95306884 10826 OBJECT B 1 43759U 18099B 19045.83754861 -.00000133 00000-0 -68392-5 0 9998 2 43759 97.7590 119.2638 0014754 19.5865 340.5919 14.95070069 10915 OBJECT D 1 43761U 18099D 19045.17285715 -.00000237 00000-0 -16384-4 0 9993 2 43761 97.7614 118.6171 0015123 27.6817 332.5206 14.94971919 10810 AO-95 1 43770U 18099N 19044.85287864 -.00000022 00000-0 33321-5 0 9996 2 43770 97.7591 118.2423 0015330 35.1085 325.1143 14.94676059 10771 OBJECT P 1 43771U 18099P 19044.85250437 -.00000008 00000-0 45672-5 0 9999 2 43771 097.7591 118.2421 0015357 035.1374 325.0856 14.94685466010761 RANGE-B 1 43772U 18099Q 19045.18428938 .00000043 00000-0 92442-5 0 9995 2 43772 97.7641 118.6227 0014592 21.9576 338.2267 14.94753163 10811 RANGE-A 1 43773U 18099R 19045.18439019 -.00000166 00000-0 -99879-5 0 9997 2 43773 97.7539 118.5339 0014017 22.3970 337.7860 14.94736499 10812 OBJECT T 1 43775U 18099T 19045.17804596 -.00000238 00000-0 -16519-4 0 9993 2 43775 97.7601 118.5994 0015267 25.9441 334.2542 14.94867136 10802 OBJECT U 1 43776U 18099U 19044.91026567 -.00000289 00000-0 -21116-4 0 9994 2 43776 097.7600 118.3340 0015309 026.6853 333.5152 14.94864361010768 OBJECT W 1 43778U 18099W 19045.18271475 -.00000093 00000-0 -32218-5 0 9995 2 43778 97.7500 118.4950 0014718 31.0194 329.1893 14.94777686 10393 OBJECT X 1 43779U 18099X 19045.17802535 -.00000268 00000-0 -19223-4 0 9996 2 43779 97.7599 118.5992 0015271 25.8596 334.3385 14.94865601 10806 MOVE-II 1 43780U 18099Y 19045.17666547 .00000023 00000-0 73825-5 0 9995 2 43780 97.7577 118.5695 0014217 32.9564 327.2539 14.94916645 10804 SNUSat 2 1 43782U 18099AA 19045.17338277 -.00000113 00000-0 -50298-5 0 9994 2 43782 97.7588 118.5887 0013294 22.9740 337.2073 14.94971167 10815 SnugLite 1 43784U 18099AC 19045.16979655 -.00000032 00000-0 23631-5 0 9996 2 43784 97.7554 118.5586 0015820 29.8464 330.3656 14.95045062 10821 ITASat 1 1 43786U 18099AE 19045.16888527 -.00000028 00000-0 27491-5 0 9998 2 43786 97.7607 118.6127 0015905 28.7681 331.4413 14.95062545 10825 OBJECT AH 1 43789U 18099AH 19045.15074506 .00000700 00000-0 68394-4 0 9996 2 43789 97.7585 118.6112 0016405 27.8400 332.3695 14.95445601 10518 EAGLET 1 1 43790U 18099AJ 19045.15020910 .00000524 00000-0 52582-4 0 9994 2 43790 97.7598 118.6279 0014234 34.8275 325.3874 14.95443119 10517 ESEO 1 43792U 18099AL 19045.28253909 .00000475 00000-0 48136-4 0 9991 2 43792 97.7580 118.7483 0014020 31.7685 328.4378 14.95468403 10596 CSIM 1 43793U 18099AM 19045.28004689 .00000868 00000-0 83407-4 0 9997 2 43793 97.7532 118.6930 0013462 30.3828 329.8171 14.95548289 10567 Astrocast 0.1 1 43798U 18099AS 19045.27253486 .00000446 00000-0 45304-4 0 9998 2 43798 97.7583 118.7621 0012624 16.0079 344.1538 14.95680296 10825 OBJECT AV 1 43801U 18099AV 19045.83333202 .00000072 00000-0 11828-4 0 9999 2 43801 97.7548 119.2191 0014687 20.5144 339.6663 14.95163586 10919 JO-97 1 43803U 18099AX 19045.89988941 .00000517 00000-0 52273-4 0 9996 2 43803 97.7561 119.3012 0016050 27.5748 332.6311 14.95178183 10925 Suomi 100 1 43804U 18099AY 19045.83265999 .00000156 00000-0 19503-4 0 9990 2 43804 97.7562 119.2367 0015914 27.6997 332.5067 14.95179993 10921 Al Farabi 2 1 43805U 18099AZ 19045.76469610 .00000325 00000-0 34753-4 0 9991 2 43805 97.7563 119.1721 0015937 28.1240 332.0838 14.95210096 10918 OBJECT BA 1 43806U 18099BA 19045.83156441 .00000113 00000-0 15522-4 0 9993 2 43806 97.7563 119.2360 0015617 26.1171 334.0834 14.95196388 10617 OBJECT BD 1 43809U 18099BD 19045.82511904 .00000360 00000-0 37858-4 0 9994 2 43809 97.7580 119.2647 0015941 29.1877 331.0231 14.95329370 10610 OBJECT BE 1 43810U 18099BE 19045.82502833 .00000298 00000-0 32229-4 0 9994 2 43810 97.7491 119.1840 0015068 24.5096 335.6837 14.95327325 10462 PWSat 2 1 43814U 18099BJ 19045.16028078 .00012235 00000-0 10950-2 0 9998 2 43814 97.7662 118.6235 0003537 46.9613 313.1943 14.95982791 10215 OBJECT BQ 1 43820U 18099BQ 19045.82563994 .00000291 00000-0 31659-4 0 9999 2 43820 97.7537 119.2276 0013104 20.7565 339.4185 14.95316033 10312 OBJECT BS 1 43822U 18099BS 19045.15976466 .00000267 00000-0 29678-4 0 9990 2 43822 97.7589 118.6007 0015949 24.9237 335.2750 14.94980990 4411 CHOMPTT 1 43855U 18104G 19044.79916216 .00000042 00000-0 00000 0 0 9993 2 43855 85.0391 138.9969 0019970 58.6560 301.6642 15.22140803 9023 ISAT 1 43879U 18111D 19045.84702545 .00000064 00000-0 10843-4 0 9997 2 43879 97.7258 315.5986 0014818 78.7154 281.5732 14.95892130 5434 UWE-4 1 43880U 18111E 19045.77201840 .00000478 00000-0 47520-4 0 9994 2 43880 97.7268 315.5496 0014054 80.2833 279.9975 14.96137338 5429 Sparrow 1 43881U 18111F 19045.83746977 .00000561 00000-0 54877-4 0 9993 2 43881 97.7272 315.6194 0014177 79.0241 281.2574 14.96181334 5433 Lume 1 1 43908U 18111AJ 19045.85173397 .00001037 00000-0 45348-4 0 9997 2 43908 97.2986 314.4342 0023502 69.8199 290.5564 15.24050756 7588 FO-98 1 43933U 19003B 19045.79054418 .00000486 00000-0 24555-4 0 9995 2 43933 97.2992 107.2411 0018516 155.4868 342.4319 15.21434853 4215 FO-99 1 43937U 19003F 19045.88572693 .00001137 00000-0 50518-4 0 9991 2 43937 97.2947 107.3865 0025494 144.9691 333.4988 15.23246321 4230 Delphini 1 1 44030U 98067PW 19045.59594147 .00009894 00000-0 15713-3 0 9994 2 44030 51.6384 250.7770 0004799 52.8566 307.2862 15.54013538 2239 /EX
